Time,TemperatureF,DewpointF,PressureIn,WindDirection,WindDirectionDegrees,WindSpeedMPH,WindSpeedGustMPH,Humidity,HourlyPrecipIn,Conditions,Clouds,dailyrainin,SoftwareType,DateUTC
2013-04-21 00:00:00,33.9,32.2,30.17,North,0,0.0,-999.0,93,0.00,,,-99.99,,2013-04-21 08:00:00,
2013-04-21 00:05:00,33.8,32.2,30.17,North,0,0.0,-999.0,93,0.00,,,-99.99,,2013-04-21 08:05:00,
2013-04-21 00:10:00,33.7,32.2,30.17,North,0,0.0,-999.0,94,0.00,,,-99.99,,2013-04-21 08:10:00,
2013-04-21 00:15:00,33.6,32.2,30.17,North,0,0.0,-999.0,94,0.00,,,-99.99,,2013-04-21 08:15:00,
2013-04-21 00:20:00,33.8,32.4,30.17,North,0,0.0,-999.0,94,0.00,,,-99.99,,2013-04-21 08:20:00,
2013-04-21 00:25:00,33.7,32.4,30.17,North,0,0.0,-999.0,94,0.00,,,-99.99,,2013-04-21 08:25:00,
2013-04-21 00:30:00,33.8,32.5,30.17,North,0,0.0,-999.0,94,0.00,,,-99.99,,2013-04-21 08:30:00,
2013-04-21 00:35:00,33.8,32.5,30.17,North,0,0.0,-999.0,95,0.00,,,-99.99,,2013-04-21 08:35:00,
2013-04-21 00:40:00,33.7,32.5,30.17,North,0,0.0,-999.0,95,0.00,,,-99.99,,2013-04-21 08:40:00,
2013-04-21 00:45:00,34.0,32.8,30.17,North,0,0.0,-999.0,95,0.00,,,-99.99,,2013-04-21 08:45:00,
2013-04-21 00:50:00,34.1,33.0,30.17,North,0,0.0,-999.0,95,0.00,,,-99.99,,2013-04-21 08:50:00,
2013-04-21 00:55:00,34.0,32.8,30.17,North,0,0.0,-999.0,95,0.00,,,-99.99,,2013-04-21 08:55:00,
2013-04-21 01:00:00,34.0,32.8,30.13,North,0,0.0,-999.0,95,0.00,,,-99.99,,2013-04-21 09:00:00,
2013-04-21 01:05:00,34.0,32.8,30.13,North,0,0.0,-999.0,95,0.00,,,-99.99,,2013-04-21 09:05:00,
2013-04-21 01:10:00,34.0,32.9,30.13,North,0,0.0,-999.0,95,0.00,,,-99.99,,2013-04-21 09:10:00,
2013-04-21 01:15:00,34.2,33.1,30.13,North,0,0.0,-999.0,95,0.00,,,-99.99,,2013-04-21 09:15:00,
2013-04-21 01:20:00,34.2,33.1,30.13,North,0,0.0,-999.0,95,0.00,,,-99.99,,2013-04-21 09:20:00,
2013-04-21 01:25:00,34.5,33.4,30.13,North,0,0.0,-999.0,95,0.00,,,-99.99,,2013-04-21 09:25:00,
2013-04-21 01:30:00,34.2,33.0,30.13,North,0,0.0,-999.0,95,0.00,,,-99.99,,2013-04-21 09:30:00,
2013-04-21 01:35:00,34.1,33.0,30.13,North,0,0.0,-999.0,95,0.00,,,-99.99,,2013-04-21 09:35:00,
2013-04-21 01:40:00,33.9,32.8,30.13,North,0,0.0,-999.0,95,0.00,,,-99.99,,2013-04-21 09:40:00,
2013-04-21 01:45:00,33.8,32.8,30.13,North,0,0.0,-999.0,95,0.00,,,-99.99,,2013-04-21 09:45:00,
2013-04-21 01:50:00,33.9,32.9,30.13,North,0,0.0,-999.0,96,0.00,,,-99.99,,2013-04-21 09:50:00,
2013-04-21 01:55:00,34.1,33.1,30.13,North,0,0.0,-999.0,96,0.00,,,-99.99,,2013-04-21 09:55:00,
2013-04-21 02:00:00,34.2,33.2,30.12,North,0,0.0,-999.0,96,0.00,,,-99.99,,2013-04-21 10:00:00,
2013-04-21 02:05:00,34.2,33.2,30.12,North,0,0.0,-999.0,96,0.00,,,-99.99,,2013-04-21 10:05:00,
2013-04-21 02:10:00,34.3,33.2,30.12,North,0,0.0,-999.0,95,0.00,,,-99.99,,2013-04-21 10:10:00,
2013-04-21 02:15:00,34.2,33.2,30.12,North,0,0.0,-999.0,96,0.00,,,-99.99,,2013-04-21 10:15:00,
2013-04-21 02:20:00,34.3,33.3,30.12,North,0,0.0,-999.0,96,0.00,,,-99.99,,2013-04-21 10:20:00,
2013-04-21 02:25:00,34.4,33.4,30.12,North,0,0.0,-999.0,96,0.00,,,-99.99,,2013-04-21 10:25:00,
2013-04-21 02:30:00,34.4,33.4,30.12,North,0,0.0,-999.0,96,0.00,,,-99.99,,2013-04-21 10:30:00,
2013-04-21 02:35:00,34.3,33.2,30.12,North,0,0.0,-999.0,95,0.00,,,-99.99,,2013-04-21 10:35:00,
2013-04-21 02:40:00,34.3,33.3,30.12,North,0,0.0,-999.0,96,0.00,,,-99.99,,2013-04-21 10:40:00,
2013-04-21 02:45:00,34.3,33.3,30.12,North,0,0.0,-999.0,96,0.00,,,-99.99,,2013-04-21 10:45:00,
2013-04-21 02:50:00,34.5,33.5,30.12,North,0,0.0,-999.0,96,0.00,,,-99.99,,2013-04-21 10:50:00,
2013-04-21 02:55:00,34.3,33.4,30.12,North,0,0.0,-999.0,96,0.00,,,-99.99,,2013-04-21 10:55:00,
2013-04-21 03:00:00,34.6,33.7,30.11,North,0,0.0,-999.0,96,0.00,,,-99.99,,2013-04-21 11:00:00,
2013-04-21 03:05:00,34.8,33.9,30.11,North,0,0.0,-999.0,96,0.00,,,-99.99,,2013-04-21 11:05:00,
2013-04-21 03:10:00,34.9,33.9,30.11,North,0,0.0,-999.0,96,0.00,,,-99.99,,2013-04-21 11:10:00,
2013-04-21 03:15:00,34.9,34.0,30.11,North,0,0.0,-999.0,96,0.00,,,-99.99,,2013-04-21 11:15:00,
2013-04-21 03:20:00,34.9,33.9,30.11,North,0,0.0,-999.0,96,0.00,,,-99.99,,2013-04-21 11:20:00,
2013-04-21 03:25:00,34.9,33.8,30.11,North,0,0.0,-999.0,95,0.00,,,-99.99,,2013-04-21 11:25:00,
2013-04-21 03:30:00,34.9,33.8,30.11,North,0,0.0,-999.0,95,0.00,,,-99.99,,2013-04-21 11:30:00,
2013-04-21 03:35:00,34.7,33.6,30.11,North,0,0.0,-999.0,95,0.00,,,-99.99,,2013-04-21 11:35:00,
2013-04-21 03:40:00,34.6,33.5,30.11,North,0,0.0,-999.0,95,0.00,,,-99.99,,2013-04-21 11:40:00,
2013-04-21 03:45:00,34.6,33.6,30.11,North,0,0.0,-999.0,95,0.00,,,-99.99,,2013-04-21 11:45:00,
2013-04-21 03:50:00,34.5,33.4,30.11,North,0,0.0,-999.0,96,0.00,,,-99.99,,2013-04-21 11:50:00,
2013-04-21 03:55:00,34.6,33.6,30.11,North,0,0.0,-999.0,96,0.00,,,-99.99,,2013-04-21 11:55:00,
2013-04-21 04:00:00,34.8,33.9,30.09,North,0,0.0,-999.0,96,0.00,,,-99.99,,2013-04-21 12:00:00,
2013-04-21 04:05:00,34.6,33.6,30.09,North,0,0.0,-999.0,96,0.00,,,-99.99,,2013-04-21 12:05:00,
2013-04-21 04:10:00,34.4,33.4,30.09,North,0,0.0,-999.0,96,0.00,,,-99.99,,2013-04-21 12:10:00,
2013-04-21 04:15:00,34.5,33.5,30.09,North,0,0.0,-999.0,96,0.00,,,-99.99,,2013-04-21 12:15:00,
2013-04-21 04:20:00,34.5,33.5,30.09,North,0,0.0,-999.0,96,0.00,,,-99.99,,2013-04-21 12:20:00,
2013-04-21 04:25:00,34.5,33.5,30.09,North,0,0.0,-999.0,96,0.00,,,-99.99,,2013-04-21 12:25:00,
2013-04-21 04:30:00,34.6,33.6,30.09,North,0,0.0,-999.0,96,0.00,,,-99.99,,2013-04-21 12:30:00,
2013-04-21 04:35:00,34.4,33.5,30.09,North,0,0.0,-999.0,96,0.00,,,-99.99,,2013-04-21 12:35:00,
2013-04-21 04:40:00,34.6,33.7,30.09,North,0,0.0,-999.0,96,0.00,,,-99.99,,2013-04-21 12:40:00,
2013-04-21 04:45:00,34.5,33.5,30.09,North,0,0.0,-999.0,96,0.00,,,-99.99,,2013-04-21 12:45:00,
2013-04-21 04:50:00,34.6,33.6,30.09,North,0,0.0,-999.0,96,0.00,,,-99.99,,2013-04-21 12:50:00,
2013-04-21 04:55:00,34.7,33.8,30.09,North,0,0.0,-999.0,96,0.00,,,-99.99,,2013-04-21 12:55:00,
2013-04-21 05:00:00,34.7,33.8,30.07,North,0,0.0,-999.0,96,0.00,,,-99.99,,2013-04-21 13:00:00,
2013-04-21 05:05:00,34.7,33.7,30.07,North,0,0.0,-999.0,96,0.00,,,-99.99,,2013-04-21 13:05:00,
2013-04-21 05:10:00,34.6,33.7,30.07,North,0,0.0,-999.0,96,0.00,,,-99.99,,2013-04-21 13:10:00,
2013-04-21 05:15:00,34.7,33.8,30.07,North,0,0.0,-999.0,96,0.00,,,-99.99,,2013-04-21 13:15:00,
2013-04-21 05:20:00,34.6,33.6,30.07,North,0,0.0,-999.0,96,0.00,,,-99.99,,2013-04-21 13:20:00,
2013-04-21 05:25:00,34.6,33.6,30.07,North,0,0.0,-999.0,96,0.00,,,-99.99,,2013-04-21 13:25:00,
2013-04-21 05:30:00,34.6,33.7,30.07,North,0,0.0,-999.0,96,0.00,,,-99.99,,2013-04-21 13:30:00,
2013-04-21 05:35:00,34.8,33.8,30.07,North,0,0.0,-999.0,96,0.00,,,-99.99,,2013-04-21 13:35:00,
2013-04-21 05:40:00,34.8,33.8,30.07,North,0,0.0,-999.0,96,0.00,,,-99.99,,2013-04-21 13:40:00,
2013-04-21 05:45:00,34.8,33.8,30.07,North,0,0.0,-999.0,96,0.00,,,-99.99,,2013-04-21 13:45:00,
2013-04-21 05:50:00,35.0,34.0,30.07,North,0,0.0,-999.0,96,0.00,,,-99.99,,2013-04-21 13:50:00,
2013-04-21 05:55:00,34.8,33.8,30.07,North,0,0.0,-999.0,96,0.00,,,-99.99,,2013-04-21 13:55:00,
2013-04-21 06:00:00,35.0,34.1,30.04,North,0,0.0,-999.0,96,0.00,,,-99.99,,2013-04-21 14:00:00,
2013-04-21 06:05:00,35.0,34.0,30.04,North,0,0.0,-999.0,96,0.00,,,-99.99,,2013-04-21 14:05:00,
2013-04-21 06:10:00,35.1,34.2,30.04,North,0,0.0,-999.0,96,0.00,,,-99.99,,2013-04-21 14:10:00,
2013-04-21 06:15:00,35.1,34.2,30.04,North,0,0.0,-999.0,96,0.00,,,-99.99,,2013-04-21 14:15:00,
2013-04-21 06:20:00,35.0,34.1,30.04,North,0,0.0,-999.0,96,0.00,,,-99.99,,2013-04-21 14:20:00,
2013-04-21 06:25:00,35.0,34.0,30.04,North,0,0.0,-999.0,96,0.00,,,-99.99,,2013-04-21 14:25:00,
2013-04-21 06:30:00,34.8,33.9,30.04,North,0,0.0,-999.0,96,0.00,,,-99.99,,2013-04-21 14:30:00,
2013-04-21 06:35:00,34.5,33.6,30.04,North,0,0.0,-999.0,96,0.00,,,-99.99,,2013-04-21 14:35:00,
2013-04-21 06:40:00,34.4,33.5,30.04,North,0,0.0,-999.0,96,0.00,,,-99.99,,2013-04-21 14:40:00,
2013-04-21 06:45:00,34.5,33.6,30.04,North,0,0.0,-999.0,96,0.00,,,-99.99,,2013-04-21 14:45:00,
2013-04-21 06:50:00,34.3,33.4,30.04,North,0,0.0,-999.0,96,0.00,,,-99.99,,2013-04-21 14:50:00,
2013-04-21 06:55:00,34.3,33.4,30.04,North,0,0.0,-999.0,96,0.00,,,-99.99,,2013-04-21 14:55:00,
2013-04-21 07:00:00,34.3,33.4,30.02,North,0,0.0,-999.0,96,0.00,,,-99.99,,2013-04-21 15:00:00,
2013-04-21 07:05:00,34.3,33.5,30.02,North,0,0.0,-999.0,96,0.00,,,-99.99,,2013-04-21 15:05:00,
2013-04-21 07:10:00,34.2,33.3,30.02,North,0,0.0,-999.0,96,0.00,,,-99.99,,2013-04-21 15:10:00,
2013-04-21 07:15:00,34.2,33.4,30.02,North,0,0.0,-999.0,96,0.00,,,-99.99,,2013-04-21 15:15:00,
2013-04-21 07:20:00,34.5,33.7,30.02,North,0,0.0,-999.0,96,0.00,,,-99.99,,2013-04-21 15:20:00,
2013-04-21 07:25:00,34.7,33.9,30.02,North,0,0.0,-999.0,96,0.00,,,-99.99,,2013-04-21 15:25:00,
2013-04-21 07:30:00,34.6,33.8,30.02,North,0,0.0,-999.0,96,0.00,,,-99.99,,2013-04-21 15:30:00,
2013-04-21 07:35:00,34.7,33.9,30.02,North,0,0.0,-999.0,96,0.00,,,-99.99,,2013-04-21 15:35:00,
2013-04-21 07:40:00,34.7,33.9,30.02,North,0,0.0,-999.0,96,0.00,,,-99.99,,2013-04-21 15:40:00,
2013-04-21 07:45:00,34.8,33.9,30.02,North,0,0.0,-999.0,96,0.00,,,-99.99,,2013-04-21 15:45:00,
2013-04-21 07:50:00,34.7,33.9,30.02,North,0,0.0,-999.0,96,0.00,,,-99.99,,2013-04-21 15:50:00,
2013-04-21 07:55:00,34.7,33.9,30.02,North,0,0.0,-999.0,96,0.00,,,-99.99,,2013-04-21 15:55:00,
2013-04-21 08:00:00,34.7,33.9,30.03,North,0,0.0,-999.0,96,0.00,,,-99.99,,2013-04-21 16:00:00,
2013-04-21 08:05:00,34.7,33.8,30.03,North,0,0.0,-999.0,96,0.00,,,-99.99,,2013-04-21 16:05:00,
2013-04-21 08:10:00,34.7,33.8,30.03,North,0,0.0,-999.0,96,0.00,,,-99.99,,2013-04-21 16:10:00,
2013-04-21 08:15:00,34.6,33.7,30.03,North,0,0.0,-999.0,96,0.00,,,-99.99,,2013-04-21 16:15:00,
2013-04-21 08:20:00,34.5,33.7,30.03,North,0,0.0,-999.0,96,0.00,,,-99.99,,2013-04-21 16:20:00,
2013-04-21 08:25:00,34.6,33.8,30.03,North,0,0.0,-999.0,96,0.00,,,-99.99,,2013-04-21 16:25:00,
2013-04-21 08:30:00,34.5,33.7,30.03,North,0,0.0,-999.0,96,0.00,,,-99.99,,2013-04-21 16:30:00,
2013-04-21 08:35:00,34.6,33.8,30.03,North,0,0.0,-999.0,96,0.00,,,-99.99,,2013-04-21 16:35:00,
2013-04-21 08:40:00,34.7,33.9,30.03,North,0,0.0,-999.0,96,0.00,,,-99.99,,2013-04-21 16:40:00,
2013-04-21 08:45:00,34.7,33.8,30.03,North,0,0.0,-999.0,96,0.00,,,-99.99,,2013-04-21 16:45:00,
2013-04-21 08:50:00,34.8,34.0,30.03,North,0,0.0,-999.0,96,0.00,,,-99.99,,2013-04-21 16:50:00,
2013-04-21 08:55:00,34.9,34.0,30.03,North,0,0.0,-999.0,96,0.00,,,-99.99,,2013-04-21 16:55:00,
2013-04-21 09:00:00,34.7,33.8,30.02,North,0,0.0,-999.0,96,0.00,,,-99.99,,2013-04-21 17:00:00,
2013-04-21 09:05:00,34.3,33.4,30.02,North,0,0.0,-999.0,96,0.00,,,-99.99,,2013-04-21 17:05:00,
2013-04-21 09:10:00,34.3,33.4,30.02,North,0,0.0,-999.0,96,0.00,,,-99.99,,2013-04-21 17:10:00,
2013-04-21 09:15:00,34.0,33.0,30.02,North,0,0.0,-999.0,96,0.00,,,-99.99,,2013-04-21 17:15:00,
2013-04-21 09:20:00,33.5,32.6,30.02,North,0,0.0,-999.0,96,0.00,,,-99.99,,2013-04-21 17:20:00,
2013-04-21 09:25:00,33.2,32.4,30.02,North,0,0.0,-999.0,96,0.00,,,-99.99,,2013-04-21 17:25:00,
2013-04-21 09:30:00,33.2,32.5,30.02,North,0,0.0,-999.0,96,0.00,,,-99.99,,2013-04-21 17:30:00,
2013-04-21 09:35:00,33.4,32.6,30.02,North,0,0.0,-999.0,97,0.00,,,-99.99,,2013-04-21 17:35:00,
2013-04-21 09:40:00,33.5,32.8,30.02,North,0,0.0,-999.0,96,0.00,,,-99.99,,2013-04-21 17:40:00,
2013-04-21 09:45:00,33.0,32.2,30.02,North,0,0.0,-999.0,96,0.00,,,-99.99,,2013-04-21 17:45:00,
2013-04-21 09:50:00,32.8,31.9,30.02,North,0,0.0,-999.0,96,0.00,,,-99.99,,2013-04-21 17:50:00,
2013-04-21 09:55:00,32.8,32.0,30.02,North,0,0.0,-999.0,96,0.00,,,-99.99,,2013-04-21 17:55:00,
2013-04-21 10:00:00,32.6,31.8,30.02,North,0,0.0,-999.0,96,0.00,,,-99.99,,2013-04-21 18:00:00,
2013-04-21 10:05:00,32.6,31.8,30.02,North,0,0.0,-999.0,97,0.00,,,-99.99,,2013-04-21 18:05:00,
2013-04-21 10:10:00,32.7,32.0,30.02,North,0,0.0,-999.0,97,0.00,,,-99.99,,2013-04-21 18:10:00,
2013-04-21 10:15:00,32.4,31.7,30.02,North,0,0.0,-999.0,97,0.00,,,-99.99,,2013-04-21 18:15:00,
2013-04-21 10:20:00,32.6,31.9,30.02,North,0,0.0,-999.0,97,0.00,,,-99.99,,2013-04-21 18:20:00,
2013-04-21 10:25:00,32.6,31.9,30.02,North,0,0.0,-999.0,97,0.00,,,-99.99,,2013-04-21 18:25:00,
2013-04-21 10:30:00,32.5,31.8,30.02,North,0,0.0,-999.0,97,0.00,,,-99.99,,2013-04-21 18:30:00,
2013-04-21 10:35:00,32.5,31.8,30.02,North,0,0.0,-999.0,97,0.00,,,-99.99,,2013-04-21 18:35:00,
2013-04-21 10:40:00,32.7,32.0,30.02,North,0,0.0,-999.0,97,0.00,,,-99.99,,2013-04-21 18:40:00,
2013-04-21 10:45:00,32.7,32.0,30.02,North,0,0.0,-999.0,97,0.00,,,-99.99,,2013-04-21 18:45:00,
2013-04-21 10:50:00,32.7,32.0,30.02,North,0,0.0,-999.0,97,0.00,,,-99.99,,2013-04-21 18:50:00,
2013-04-21 10:55:00,32.8,32.1,30.02,North,0,0.0,-999.0,97,0.00,,,-99.99,,2013-04-21 18:55:00,
2013-04-21 11:00:00,33.0,32.3,30.02,North,0,0.0,-999.0,97,0.00,,,-99.99,,2013-04-21 19:00:00,
2013-04-21 11:05:00,32.9,32.2,30.02,North,0,0.0,-999.0,97,0.00,,,-99.99,,2013-04-21 19:05:00,
2013-04-21 11:10:00,32.8,32.1,30.02,North,0,0.0,-999.0,97,0.00,,,-99.99,,2013-04-21 19:10:00,
2013-04-21 11:15:00,33.1,32.4,30.02,North,0,0.0,-999.0,97,0.00,,,-99.99,,2013-04-21 19:15:00,
2013-04-21 11:20:00,33.1,32.4,30.02,North,0,0.0,-999.0,97,0.00,,,-99.99,,2013-04-21 19:20:00,
2013-04-21 11:25:00,33.1,32.4,30.02,North,0,0.0,-999.0,96,0.00,,,-99.99,,2013-04-21 19:25:00,
2013-04-21 11:30:00,33.1,32.4,30.02,North,0,0.0,-999.0,97,0.00,,,-99.99,,2013-04-21 19:30:00,
2013-04-21 11:35:00,33.2,32.5,30.02,North,0,0.0,-999.0,97,0.00,,,-99.99,,2013-04-21 19:35:00,
2013-04-21 11:40:00,32.9,32.1,30.02,North,0,0.0,-999.0,96,0.00,,,-99.99,,2013-04-21 19:40:00,
2013-04-21 11:45:00,33.0,32.2,30.02,North,0,0.0,-999.0,96,0.00,,,-99.99,,2013-04-21 19:45:00,
2013-04-21 11:50:00,33.0,32.3,30.02,North,0,0.0,-999.0,96,0.00,,,-99.99,,2013-04-21 19:50:00,
2013-04-21 11:55:00,32.8,32.0,30.02,North,0,0.0,-999.0,96,0.00,,,-99.99,,2013-04-21 19:55:00,
2013-04-21 12:00:00,32.9,32.1,30.05,North,0,0.0,-999.0,97,0.00,,,-99.99,,2013-04-21 20:00:00,
2013-04-21 12:05:00,32.8,32.0,30.05,North,0,0.0,-999.0,97,0.00,,,-99.99,,2013-04-21 20:05:00,
2013-04-21 12:10:00,32.9,32.2,30.05,North,0,0.0,-999.0,97,0.00,,,-99.99,,2013-04-21 20:10:00,
2013-04-21 12:17:00,33.1,32.4,30.05,North,0,0.0,-999.0,97,0.00,,,-99.99,,2013-04-21 20:17:00,
2013-04-21 12:22:00,32.8,32.1,30.05,North,0,0.0,-999.0,97,0.00,,,-99.99,,2013-04-21 20:22:00,
2013-04-21 12:27:00,33.0,32.3,30.05,North,0,0.0,-999.0,96,0.00,,,-99.99,,2013-04-21 20:27:00,
2013-04-21 12:32:00,33.2,32.4,30.05,North,0,0.0,-999.0,96,0.00,,,-99.99,,2013-04-21 20:32:00,
2013-04-21 12:37:00,33.4,32.6,30.05,North,0,0.0,-999.0,96,0.00,,,-99.99,,2013-04-21 20:37:00,
2013-04-21 12:42:00,33.4,32.5,30.05,North,0,0.0,-999.0,96,0.00,,,-99.99,,2013-04-21 20:42:00,
2013-04-21 12:47:00,33.5,32.8,30.05,North,0,0.0,-999.0,96,0.00,,,-99.99,,2013-04-21 20:47:00,
2013-04-21 12:52:00,33.6,32.7,30.05,North,0,0.0,-999.0,96,0.00,,,-99.99,,2013-04-21 20:52:00,
2013-04-21 12:57:00,33.5,32.6,30.05,North,0,0.0,-999.0,96,0.00,,,-99.99,,2013-04-21 20:57:00,
2013-04-21 13:02:00,33.4,32.6,30.06,North,0,0.0,-999.0,96,0.00,,,-99.99,,2013-04-21 21:02:00,
2013-04-21 13:07:00,33.5,32.6,30.06,North,0,0.0,-999.0,96,0.00,,,-99.99,,2013-04-21 21:07:00,
2013-04-21 13:12:00,33.2,32.3,30.06,North,0,0.0,-999.0,96,0.00,,,-99.99,,2013-04-21 21:12:00,
2013-04-21 13:17:00,33.0,32.2,30.06,North,0,0.0,-999.0,96,0.00,,,-99.99,,2013-04-21 21:17:00,
2013-04-21 13:22:00,33.4,32.5,30.06,North,0,0.0,-999.0,96,0.00,,,-99.99,,2013-04-21 21:22:00,
2013-04-21 13:27:00,33.2,32.4,30.06,North,0,0.0,-999.0,96,0.00,,,-99.99,,2013-04-21 21:27:00,
2013-04-21 13:32:00,33.2,32.4,30.06,North,0,0.0,-999.0,96,0.00,,,-99.99,,2013-04-21 21:32:00,
2013-04-21 13:37:00,33.2,32.3,30.06,North,0,0.0,-999.0,96,0.00,,,-99.99,,2013-04-21 21:37:00,
2013-04-21 13:42:00,33.1,32.3,30.06,North,0,0.0,-999.0,96,0.00,,,-99.99,,2013-04-21 21:42:00,
2013-04-21 13:47:00,33.1,32.3,30.06,North,0,0.0,-999.0,96,0.00,,,-99.99,,2013-04-21 21:47:00,
2013-04-21 13:52:00,33.0,32.2,30.06,North,0,0.0,-999.0,96,0.00,,,-99.99,,2013-04-21 21:52:00,
2013-04-21 13:57:00,33.1,32.3,30.06,North,0,0.0,-999.0,96,0.00,,,-99.99,,2013-04-21 21:57:00,
2013-04-21 14:02:00,33.2,32.4,30.07,North,0,0.0,-999.0,96,0.00,,,-99.99,,2013-04-21 22:02:00,
2013-04-21 14:07:00,33.5,32.8,30.07,North,0,0.0,-999.0,96,0.00,,,-99.99,,2013-04-21 22:07:00,
2013-04-21 14:12:00,33.8,33.1,30.07,North,0,0.0,-999.0,96,0.00,,,-99.99,,2013-04-21 22:12:00,
2013-04-21 14:17:00,33.8,32.9,30.07,North,0,0.0,-999.0,96,0.00,,,-99.99,,2013-04-21 22:17:00,
2013-04-21 14:22:00,34.7,33.8,30.07,North,0,0.0,-999.0,96,0.00,,,-99.99,,2013-04-21 22:22:00,
2013-04-21 14:27:00,35.0,34.0,30.07,North,0,0.0,-999.0,96,0.00,,,-99.99,,2013-04-21 22:27:00,
2013-04-21 14:32:00,35.1,34.1,30.07,North,0,0.0,-999.0,95,0.00,,,-99.99,,2013-04-21 22:32:00,
2013-04-21 14:37:00,35.0,33.8,30.07,North,0,0.0,-999.0,95,0.00,,,-99.99,,2013-04-21 22:37:00,
2013-04-21 14:42:00,35.4,34.4,30.07,North,0,0.0,-999.0,96,0.00,,,-99.99,,2013-04-21 22:42:00,
2013-04-21 14:47:00,35.3,34.2,30.07,North,0,0.0,-999.0,95,0.00,,,-99.99,,2013-04-21 22:47:00,
2013-04-21 14:52:00,35.0,33.8,30.07,North,0,0.0,-999.0,95,0.00,,,-99.99,,2013-04-21 22:52:00,
2013-04-21 14:57:00,35.1,33.8,30.07,North,0,0.0,-999.0,95,0.00,,,-99.99,,2013-04-21 22:57:00,
2013-04-21 15:02:00,35.2,34.0,30.08,North,0,0.0,-999.0,95,0.00,,,-99.99,,2013-04-21 23:02:00,
2013-04-21 15:07:00,35.4,34.3,30.08,North,0,0.0,-999.0,95,0.00,,,-99.99,,2013-04-21 23:07:00,
2013-04-21 15:12:00,35.6,34.3,30.08,North,0,0.0,-999.0,95,0.00,,,-99.99,,2013-04-21 23:12:00,
2013-04-21 15:17:00,35.6,34.4,30.08,North,0,0.0,-999.0,95,0.00,,,-99.99,,2013-04-21 23:17:00,
2013-04-21 15:22:00,36.3,35.1,30.08,North,0,0.0,-999.0,95,0.00,,,-99.99,,2013-04-21 23:22:00,
2013-04-21 15:27:00,36.3,35.0,30.08,North,0,0.0,-999.0,94,0.00,,,-99.99,,2013-04-21 23:27:00,
2013-04-21 15:32:00,36.2,34.7,30.08,North,0,0.0,-999.0,94,0.01,,,-99.99,,2013-04-21 23:32:00,
2013-04-21 15:37:00,36.1,34.5,30.08,North,0,0.0,-999.0,94,0.01,,,-99.99,,2013-04-21 23:37:00,
2013-04-21 15:42:00,36.2,34.7,30.08,North,0,0.0,-999.0,93,0.01,,,-99.99,,2013-04-21 23:42:00,
2013-04-21 15:47:00,36.1,34.6,30.08,North,0,0.0,-999.0,94,0.01,,,-99.99,,2013-04-21 23:47:00,
2013-04-21 15:52:00,36.1,34.5,30.08,North,0,0.0,-999.0,93,0.01,,,-99.99,,2013-04-21 23:52:00,
2013-04-21 15:57:00,36.4,34.8,30.08,North,0,0.0,-999.0,93,0.02,,,-99.99,,2013-04-21 23:57:00,
2013-04-21 16:02:00,36.4,34.8,30.11,North,0,0.0,-999.0,93,0.00,,,-99.99,,2013-04-22 00:02:00,
2013-04-21 16:07:00,36.4,34.7,30.11,North,0,0.0,-999.0,93,0.00,,,-99.99,,2013-04-22 00:07:00,
2013-04-21 16:12:00,36.3,34.5,30.11,North,0,0.0,-999.0,93,0.00,,,-99.99,,2013-04-22 00:12:00,
2013-04-21 16:17:00,36.4,34.5,30.11,North,0,0.0,-999.0,92,0.00,,,-99.99,,2013-04-22 00:17:00,
2013-04-21 16:22:00,36.4,34.8,30.11,North,0,0.0,-999.0,93,0.01,,,-99.99,,2013-04-22 00:22:00,
2013-04-21 16:27:00,36.2,34.4,30.11,North,0,0.0,-999.0,92,0.01,,,-99.99,,2013-04-22 00:27:00,
2013-04-21 16:32:00,36.4,34.7,30.11,North,0,0.0,-999.0,93,0.01,,,-99.99,,2013-04-22 00:32:00,
2013-04-21 16:37:00,36.4,34.7,30.11,North,0,0.0,-999.0,93,0.01,,,-99.99,,2013-04-22 00:37:00,
2013-04-21 16:42:00,36.0,34.2,30.11,North,0,0.0,-999.0,93,0.01,,,-99.99,,2013-04-22 00:42:00,
2013-04-21 16:47:00,36.0,34.2,30.11,North,0,0.0,-999.0,93,0.01,,,-99.99,,2013-04-22 00:47:00,
2013-04-21 16:52:00,36.1,34.4,30.11,North,0,0.0,-999.0,93,0.01,,,-99.99,,2013-04-22 00:52:00,
2013-04-21 16:57:00,36.1,34.3,30.11,North,0,0.0,-999.0,93,0.01,,,-99.99,,2013-04-22 00:57:00,
2013-04-21 17:02:00,36.1,34.3,30.11,North,0,0.0,-999.0,93,0.00,,,-99.99,,2013-04-22 01:02:00,
2013-04-21 17:07:00,36.4,34.3,30.11,North,0,0.0,-999.0,92,0.00,,,-99.99,,2013-04-22 01:07:00,
2013-04-21 17:12:00,36.5,34.6,30.11,North,0,0.0,-999.0,92,0.00,,,-99.99,,2013-04-22 01:12:00,
2013-04-21 17:17:00,36.4,34.2,30.11,North,0,0.0,-999.0,91,0.00,,,-99.99,,2013-04-22 01:17:00,
2013-04-21 17:22:00,36.4,34.3,30.11,North,0,0.0,-999.0,92,0.00,,,-99.99,,2013-04-22 01:22:00,
2013-04-21 17:27:00,36.5,34.5,30.11,North,0,0.0,-999.0,92,0.00,,,-99.99,,2013-04-22 01:27:00,
2013-04-21 17:32:00,36.4,34.3,30.11,North,0,0.0,-999.0,92,0.00,,,-99.99,,2013-04-22 01:32:00,
2013-04-21 17:37:00,36.5,34.5,30.11,North,0,0.0,-999.0,92,0.00,,,-99.99,,2013-04-22 01:37:00,
2013-04-21 17:42:00,36.4,34.4,30.11,North,0,0.0,-999.0,92,0.00,,,-99.99,,2013-04-22 01:42:00,
2013-04-21 17:47:00,36.5,34.5,30.11,North,0,0.0,-999.0,92,0.00,,,-99.99,,2013-04-22 01:47:00,
2013-04-21 17:52:00,36.7,34.5,30.11,North,0,0.0,-999.0,91,0.00,,,-99.99,,2013-04-22 01:52:00,
2013-04-21 17:57:00,36.4,34.1,30.11,North,0,0.0,-999.0,91,0.00,,,-99.99,,2013-04-22 01:57:00,
2013-04-21 18:02:00,36.4,34.1,30.14,North,0,0.0,-999.0,91,0.00,,,-99.99,,2013-04-22 02:02:00,
2013-04-21 18:07:00,36.2,34.1,30.14,North,0,0.0,-999.0,92,0.00,,,-99.99,,2013-04-22 02:07:00,
2013-04-21 18:12:00,36.1,33.8,30.14,North,0,0.0,-999.0,91,0.00,,,-99.99,,2013-04-22 02:12:00,
2013-04-21 18:17:00,36.1,33.9,30.14,North,0,0.0,-999.0,91,0.00,,,-99.99,,2013-04-22 02:17:00,
2013-04-21 18:22:00,35.8,33.8,30.14,North,0,0.0,-999.0,92,0.00,,,-99.99,,2013-04-22 02:22:00,
2013-04-21 18:27:00,35.9,34.0,30.14,North,0,0.0,-999.0,92,0.00,,,-99.99,,2013-04-22 02:27:00,
2013-04-21 18:32:00,35.8,33.6,30.14,North,0,0.0,-999.0,91,0.00,,,-99.99,,2013-04-22 02:32:00,
2013-04-21 18:37:00,36.0,33.9,30.14,North,0,0.0,-999.0,92,0.00,,,-99.99,,2013-04-22 02:37:00,
2013-04-21 18:42:00,36.2,34.2,30.14,North,0,0.0,-999.0,92,0.00,,,-99.99,,2013-04-22 02:42:00,
2013-04-21 18:47:00,36.1,34.0,30.14,North,0,0.0,-999.0,91,0.00,,,-99.99,,2013-04-22 02:47:00,
2013-04-21 18:53:00,36.0,33.9,30.14,North,0,0.0,-999.0,91,0.00,,,-99.99,,2013-04-22 02:53:00,
2013-04-21 18:58:00,36.0,33.9,30.14,North,0,0.0,-999.0,91,0.00,,,-99.99,,2013-04-22 02:58:00,
2013-04-21 19:03:00,35.8,33.8,30.15,North,0,0.0,-999.0,92,0.00,,,-99.99,,2013-04-22 03:03:00,
2013-04-21 19:08:00,35.6,33.5,30.15,North,0,0.0,-999.0,91,0.00,,,-99.99,,2013-04-22 03:08:00,
2013-04-21 19:13:00,35.7,33.6,30.15,North,0,0.0,-999.0,92,0.00,,,-99.99,,2013-04-22 03:13:00,
2013-04-21 19:19:00,35.4,33.2,30.15,North,0,0.0,-999.0,91,0.00,,,-99.99,,2013-04-22 03:19:00,
2013-04-21 19:24:00,35.5,33.4,30.15,North,0,0.0,-999.0,92,0.00,,,-99.99,,2013-04-22 03:24:00,
2013-04-21 19:29:00,35.3,33.4,30.15,North,0,0.0,-999.0,92,0.00,,,-99.99,,2013-04-22 03:29:00,
2013-04-21 19:34:00,35.5,33.6,30.15,North,0,0.0,-999.0,92,0.00,,,-99.99,,2013-04-22 03:34:00,
2013-04-21 19:39:00,35.3,33.2,30.15,North,0,0.0,-999.0,91,0.00,,,-99.99,,2013-04-22 03:39:00,
2013-04-21 19:45:00,35.4,33.4,30.15,North,0,0.0,-999.0,92,0.00,,,-99.99,,2013-04-22 03:45:00,
2013-04-21 19:50:00,35.3,33.3,30.15,North,0,0.0,-999.0,92,0.00,,,-99.99,,2013-04-22 03:50:00,
2013-04-21 19:55:00,35.5,33.4,30.15,North,0,0.0,-999.0,92,0.00,,,-99.99,,2013-04-22 03:55:00,
2013-04-21 20:00:00,35.6,33.5,30.17,North,0,0.0,-999.0,91,0.00,,,-99.99,,2013-04-22 04:00:00,
2013-04-21 20:01:00,35.6,33.3,30.17,North,0,0.0,-999.0,91,0.00,,,-99.99,,2013-04-22 04:01:00,
2013-04-21 20:02:00,35.5,33.2,30.17,North,0,0.0,-999.0,91,0.00,,,-99.99,,2013-04-22 04:02:00,
2013-04-21 20:03:00,35.5,33.3,30.17,North,0,0.0,-999.0,91,0.00,,,-99.99,,2013-04-22 04:03:00,
2013-04-21 20:05:00,35.6,33.4,30.17,North,0,0.0,-999.0,91,0.00,,,-99.99,,2013-04-22 04:05:00,
2013-04-21 20:11:00,35.3,33.1,30.17,North,0,0.0,-999.0,91,0.00,,,-99.99,,2013-04-22 04:11:00,
2013-04-21 20:15:00,35.3,33.2,30.17,North,0,0.0,-999.0,91,0.00,,,-99.99,,2013-04-22 04:15:00,
2013-04-21 20:20:00,35.2,33.2,30.17,North,0,0.0,-999.0,92,0.00,,,-99.99,,2013-04-22 04:20:00,
2013-04-21 20:25:00,35.1,33.2,30.17,North,0,0.0,-999.0,92,0.00,,,-99.99,,2013-04-22 04:25:00,
2013-04-21 20:30:00,35.1,33.2,30.17,North,0,0.0,-999.0,92,0.00,,,-99.99,,2013-04-22 04:30:00,
2013-04-21 20:37:00,35.1,33.2,30.17,North,0,0.0,-999.0,92,0.00,,,-99.99,,2013-04-22 04:37:00,
2013-04-21 20:42:00,35.0,33.0,30.17,North,0,0.0,-999.0,92,0.00,,,-99.99,,2013-04-22 04:42:00,
2013-04-21 20:47:00,34.8,33.0,30.17,North,0,0.0,-999.0,92,0.00,,,-99.99,,2013-04-22 04:47:00,
2013-04-21 20:52:00,34.7,32.9,30.17,North,0,0.0,-999.0,92,0.00,,,-99.99,,2013-04-22 04:52:00,
2013-04-21 20:57:00,34.8,33.0,30.17,North,0,0.0,-999.0,93,0.00,,,-99.99,,2013-04-22 04:57:00,
2013-04-21 21:03:00,34.9,33.2,30.20,North,0,0.0,-999.0,93,0.00,,,-99.99,,2013-04-22 05:03:00,
2013-04-21 21:08:00,34.7,33.0,30.20,North,0,0.0,-999.0,93,0.00,,,-99.99,,2013-04-22 05:08:00,
2013-04-21 21:13:00,34.7,32.9,30.20,North,0,0.0,-999.0,93,0.00,,,-99.99,,2013-04-22 05:13:00,
2013-04-21 21:18:00,34.6,32.9,30.20,North,0,0.0,-999.0,93,0.00,,,-99.99,,2013-04-22 05:18:00,
2013-04-21 21:23:00,34.5,32.8,30.20,North,0,0.0,-999.0,93,0.00,,,-99.99,,2013-04-22 05:23:00,
2013-04-21 21:29:00,34.5,32.8,30.20,North,0,0.0,-999.0,93,0.00,,,-99.99,,2013-04-22 05:29:00,
2013-04-21 21:34:00,34.4,32.6,30.20,North,0,0.0,-999.0,93,0.00,,,-99.99,,2013-04-22 05:34:00,
2013-04-21 21:39:00,34.7,32.9,30.20,North,0,0.0,-999.0,92,0.00,,,-99.99,,2013-04-22 05:39:00,
2013-04-21 21:44:00,34.6,32.8,30.20,North,0,0.0,-999.0,92,0.00,,,-99.99,,2013-04-22 05:44:00,
2013-04-21 21:49:00,34.5,32.8,30.20,North,0,0.0,-999.0,93,0.00,,,-99.99,,2013-04-22 05:49:00,
2013-04-21 21:55:00,34.7,33.0,30.20,North,0,0.0,-999.0,93,0.00,,,-99.99,,2013-04-22 05:55:00,
2013-04-21 22:00:00,34.7,32.9,30.22,North,0,0.0,-999.0,93,0.00,,,-99.99,,2013-04-22 06:00:00,
2013-04-21 22:05:00,34.7,32.8,30.22,North,0,0.0,-999.0,92,0.00,,,-99.99,,2013-04-22 06:05:00,
2013-04-21 22:10:00,34.6,32.7,30.22,North,0,0.0,-999.0,92,0.00,,,-99.99,,2013-04-22 06:10:00,
2013-04-21 22:15:00,34.7,32.9,30.22,North,0,0.0,-999.0,93,0.00,,,-99.99,,2013-04-22 06:15:00,
2013-04-21 22:21:00,34.8,32.9,30.22,North,0,0.0,-999.0,92,0.00,,,-99.99,,2013-04-22 06:21:00,
2013-04-21 22:26:00,35.0,33.1,30.22,North,0,0.0,-999.0,92,0.00,,,-99.99,,2013-04-22 06:26:00,
2013-04-21 22:31:00,35.1,33.1,30.22,North,0,0.0,-999.0,92,0.00,,,-99.99,,2013-04-22 06:31:00,
2013-04-21 22:36:00,34.8,32.8,30.22,North,0,0.0,-999.0,92,0.00,,,-99.99,,2013-04-22 06:36:00,
2013-04-21 22:41:00,34.8,32.9,30.22,North,0,0.0,-999.0,92,0.00,,,-99.99,,2013-04-22 06:41:00,
2013-04-21 22:47:00,34.7,32.8,30.22,North,0,0.0,-999.0,93,0.00,,,-99.99,,2013-04-22 06:47:00,
2013-04-21 22:52:00,34.6,32.9,30.22,North,0,0.0,-999.0,93,0.00,,,-99.99,,2013-04-22 06:52:00,
2013-04-21 22:57:00,34.3,32.7,30.22,North,0,0.0,-999.0,93,0.00,,,-99.99,,2013-04-22 06:57:00,
2013-04-21 23:02:00,34.4,32.8,30.24,North,0,0.0,-999.0,93,0.00,,,-99.99,,2013-04-22 07:02:00,
2013-04-21 23:07:00,34.4,32.8,30.24,North,0,0.0,-999.0,93,0.00,,,-99.99,,2013-04-22 07:07:00,
2013-04-21 23:13:00,34.3,32.7,30.24,North,0,0.0,-999.0,93,0.00,,,-99.99,,2013-04-22 07:13:00,
2013-04-21 23:18:00,34.1,32.4,30.24,North,0,0.0,-999.0,93,0.00,,,-99.99,,2013-04-22 07:18:00,
2013-04-21 23:23:00,34.0,32.3,30.24,North,0,0.0,-999.0,93,0.00,,,-99.99,,2013-04-22 07:23:00,
2013-04-21 23:28:00,33.8,32.2,30.24,North,0,0.0,-999.0,93,0.00,,,-99.99,,2013-04-22 07:28:00,
2013-04-21 23:33:00,33.8,32.2,30.24,North,0,0.0,-999.0,93,0.00,,,-99.99,,2013-04-22 07:33:00,
2013-04-21 23:38:00,33.6,32.1,30.24,North,0,0.0,-999.0,94,0.00,,,-99.99,,2013-04-22 07:38:00,
2013-04-21 23:43:00,33.5,32.0,30.24,North,0,0.0,-999.0,94,0.00,,,-99.99,,2013-04-22 07:43:00,
2013-04-21 23:48:00,33.4,31.9,30.24,North,0,0.0,-999.0,94,0.00,,,-99.99,,2013-04-22 07:48:00,
2013-04-21 23:53:00,33.5,32.0,30.24,North,0,0.0,-999.0,94,0.00,,,-99.99,,2013-04-22 07:53:00,
2013-04-21 23:58:00,33.4,31.9,30.24,North,0,0.0,-999.0,94,0.00,,,-99.99,,2013-04-22 07:58:00,